Location: Palau
(42.3086°N, 3.1507°E)
Time: 01:16:01
(UTC+00:00)

Cosmos 1892 Rocket - Pass Details

Date: 26 May 2020
Orbit: 606 x 633 km, 82.5° (Epoch: 15 July)

Event Time Altitude Azimuth Distance (km) Brightness Sun altitude
Exits shadow 01:14:49 38° 283° (WNW) 957 4.4 -23.2°
Maximum altitude 01:14:49 38° 283° (WNW) 957 4.4 -23.2°
Drops below altitude 10° 01:18:57 10° 352° (N) 1,994 6.9 -22.9°
Sets 01:21:19 0° 1° (N) 2,900 8.1 -22.7°
